Location: Unspecified
(0.0000°N, 0.0000°E)
Time: 16:31:10
(UTC+00:00)

LightSail 2 - Visible Passes

Search period start: 17 January 2020 00:00
Search period end: 27 January 2020 00:00
Orbit: 703 x 721 km, 24.0° (Epoch: 17 January)

Date Brightness Start Highest point End Pass type
(mag) Time Alt. Az. Time Alt. Az. Time Alt. Az.
17 Jan 6.2 03:53:51 41° SE 03:53:51 41° SE 03:57:16 10° ESE visible
17 Jan 7.0 05:34:10 10° WSW 05:37:48 19° SSW 05:41:26 10° SSE visible
18 Jan 6.5 04:38:02 24° SW 04:39:19 27° SSW 04:43:37 10° SE visible
19 Jan 7.0 03:43:13 24° SSE 03:43:13 24° SSE 03:45:37 10° SE visible
19 Jan 7.4 05:24:48 10° SW 05:26:42 12° SSW 05:28:35 10° S visible
20 Jan 7.1 04:27:20 16° SSW 04:28:05 16° SSW 04:31:18 10° SSE visible
21 Jan 7.7 03:32:27 15° SSE 03:32:27 15° SSE 03:33:34 10° SSE visible
22 Jan 7.6 04:16:39 10° SSW 04:16:58 10° SSW 04:17:15 10° SSW visible
